| time (UTC) | temp F | wind direction | speed MPH | gust MPH | rain 1hr in | rain 24hr in | rain mn in | humidity % | barometer mb |
| 20260831060930 | 80 | 255 | 1.0 | 3.0 | 0.00 | 0.00 | 0.00 | 91 | 998.4 |
| 20260831060622 | 79 | 122 | 1.0 | 5.0 | 0.00 | 0.00 | 0.00 | 91 | 998.4 |
| 20260831060430 | 79 | 233 | 0.0 | 5.0 | 0.00 | 0.00 | 0.00 | 91 | 998.5 |
| 20260831060111 | 79 | 186 | 2.0 | 6.0 | 0.00 | 0.00 | 0.00 | 90 | 998.5 |
| 20260831055930 | 79 | 203 | 1.0 | 8.0 | 0.00 | 0.00 | 0.00 | 90 | 998.5 |
| 20260831055602 | 79 | 217 | 5.0 | 8.0 | 0.00 | 0.00 | 0.00 | 90 | 998.5 |
| 20260831055431 | 79 | 192 | 5.0 | 7.0 | 0.00 | 0.00 | 0.00 | 91 | 998.5 |
| 20260831055051 | 79 | 216 | 1.0 | 3.0 | 0.00 | 0.00 | 0.00 | 91 | 998.5 |
| 20260831054930 | 79 | 232 | 0.0 | 2.0 | 0.00 | 0.00 | 0.00 | 91 | 998.4 |
| 20260831054542 | 79 | 42 | 0.0 | 3.0 | 0.00 | 0.00 | 0.00 | 91 | 998.4 |
| 20260831054431 | 78 | 347 | 1.0 | 4.0 | 0.00 | 0.00 | 0.00 | 91 | 998.5 |
| 20260831054031 | 78 | 149 | 1.0 | 9.0 | 0.00 | 0.00 | 0.00 | 90 | 998.6 |
| 20260831053930 | 78 | 203 | 3.0 | 9.0 | 0.00 | 0.00 | 0.00 | 90 | 998.6 |
| 20260831053522 | 79 | 282 | 2.0 | 4.0 | 0.00 | 0.00 | 0.00 | 91 | 998.7 |
| 20260831053430 | 79 | 300 | 1.0 | 4.0 | 0.00 | 0.00 | 0.00 | 91 | 998.7 |
| 20260831053011 | 78 | 190 | 1.0 | 5.0 | 0.00 | 0.00 | 0.00 | 91 | 998.8 |
| 20260831052930 | 78 | 194 | 2.0 | 5.0 | 0.00 | 0.00 | 0.00 | 91 | 998.8 |
| 20260831052501 | 78 | 234 | 4.0 | 5.0 | 0.00 | 0.00 | 0.00 | 90 | 998.8 |
| 20260831052430 | 78 | 230 | 3.0 | 5.0 | 0.00 | 0.00 | 0.00 | 90 | 998.8 |
| 20260831051952 | 78 | 205 | 3.0 | 5.0 | 0.00 | 0.00 | 0.00 | 90 | 999.0 |
| 20260831051930 | 78 | 201 | 3.0 | 5.0 | 0.00 | 0.00 | 0.00 | 90 | 999.0 |
| 20260831051441 | 78 | 243 | 4.0 | 8.0 | 0.00 | 0.00 | 0.00 | 90 | 999.1 |
| 20260831051430 | 78 | 204 | 4.0 | 8.0 | 0.00 | 0.00 | 0.00 | 90 | 999.1 |
| 20260831050932 | 78 | 252 | 3.0 | 7.0 | 0.00 | 0.00 | 0.00 | 90 | 999.2 |
| 20260831050929 | 78 | 220 | 3.0 | 7.0 | 0.00 | 0.00 | 0.00 | 90 | 999.2 |
| 20260831050430 | 78 | 166 | 5.0 | 8.0 | 0.00 | 0.00 | 0.00 | 90 | 999.2 |
| 20260831050421 | 78 | 165 | 5.0 | 8.0 | 0.00 | 0.00 | 0.00 | 90 | 999.3 |
| 20260831045929 | 78 | 341 | 0.0 | 6.0 | 0.00 | 0.00 | 0.00 | 90 | 999.3 |
| 20260831045911 | 78 | 323 | 0.0 | 6.0 | 0.00 | 0.00 | 0.00 | 90 | 999.3 |
| 20260831045430 | 78 | 29 | 3.0 | 5.0 | 0.00 | 0.00 | 0.00 | 89 | 999.3 |
| 20260831045401 | 78 | 30 | 3.0 | 6.0 | 0.00 | 0.00 | 0.00 | 89 | 999.4 |
| 20260831044929 | 78 | 4 | 3.0 | 8.0 | 0.00 | 0.00 | 0.00 | 89 | 999.4 |
| 20260831044851 | 78 | 331 | 4.0 | 8.0 | 0.00 | 0.00 | 0.00 | 89 | 999.4 |
| 20260831044430 | 78 | 60 | 4.0 | 8.0 | 0.00 | 0.00 | 0.00 | 89 | 999.6 |
| 20260831044341 | 78 | 20 | 4.0 | 8.0 | 0.00 | 0.00 | 0.00 | 89 | 999.6 |
| 20260831043930 | 78 | 51 | 3.0 | 5.0 | 0.00 | 0.00 | 0.00 | 89 | 999.6 |
| 20260831043831 | 78 | 25 | 3.0 | 5.0 | 0.00 | 0.00 | 0.00 | 89 | 999.6 |
| 20260831043430 | 78 | 47 | 4.0 | 9.0 | 0.00 | 0.00 | 0.00 | 88 | 999.7 |
| 20260831043320 | 78 | 65 | 6.0 | 9.0 | 0.00 | 0.00 | 0.00 | 88 | 999.7 |
| 20260831042930 | 79 | 29 | 5.0 | 7.0 | 0.00 | 0.00 | 0.00 | 88 | 999.7 |
| 20260831042429 | 79 | 17 | 2.0 | 6.0 | 0.00 | 0.00 | 0.00 | 88 | 999.7 |
| 20260831042301 | 79 | 22 | 1.0 | 6.0 | 0.00 | 0.00 | 0.00 | 88 | 999.6 |
| 20260831041930 | 79 | 23 | 3.0 | 9.0 | 0.00 | 0.00 | 0.00 | 87 | 999.6 |
| 20260831041751 | 79 | 15 | 5.0 | 9.0 | 0.00 | 0.00 | 0.00 | 88 | 999.6 |
| 20260831041429 | 79 | 25 | 3.0 | 9.0 | 0.00 | 0.00 | 0.00 | 87 | 999.6 |
| 20260831041241 | 79 | 36 | 6.0 | 9.0 | 0.00 | 0.00 | 0.00 | 87 | 999.7 |
| 20260831040930 | 80 | 47 | 5.0 | 8.0 | 0.00 | 0.00 | 0.00 | 86 | 999.7 |
| 20260831040429 | 80 | 29 | 4.0 | 7.0 | 0.00 | 0.00 | 0.00 | 86 | 999.7 |
| 20260831035930 | 81 | 55 | 3.0 | 11.0 | 0.00 | 0.00 | 0.00 | 84 | 999.8 |
| 20260831035429 | 82 | 41 | 3.0 | 8.0 | 0.00 | 0.00 | 0.00 | 83 | 999.9 |
| 20260831035201 | 83 | 25 | 3.0 | 6.0 | 0.00 | 0.00 | 0.00 | 81 | 999.9 |
| 20260831034929 | 84 | 44 | 2.0 | 5.0 | 0.00 | 0.00 | 0.00 | 80 | 999.8 |
| 20260831034650 | 84 | 32 | 1.0 | 6.0 | 0.00 | 0.00 | 0.00 | 79 | 999.9 |
| 20260831034429 | 85 | 301 | 2.0 | 6.0 | 0.00 | 0.00 | 0.00 | 78 | 999.9 |
| 20260831034141 | 85 | 360 | 1.0 | 8.0 | 0.00 | 0.00 | 0.00 | 76 | 999.9 |
| 20260831033929 | 85 | 227 | 5.0 | 8.0 | 0.00 | 0.00 | 0.00 | 75 | 999.7 |
| 20260831033429 | 86 | 275 | 6.0 | 9.0 | 0.00 | 0.00 | 0.00 | 75 | 999.7 |
| 20260831033121 | 86 | 245 | 1.0 | 5.0 | 0.00 | 0.00 | 0.00 | 75 | 999.7 |
| 20260831032930 | 86 | 335 | 1.0 | 7.0 | 0.00 | 0.00 | 0.00 | 75 | 999.7 |
| 20260831032610 | 86 | 335 | 2.0 | 8.0 | 0.00 | 0.00 | 0.00 | 75 | 999.7 |
| 20260831032429 | 86 | 244 | 4.0 | 8.0 | 0.00 | 0.00 | 0.00 | 75 | 999.7 |
| 20260831032101 | 86 | 41 | 2.0 | 7.0 | 0.00 | 0.00 | 0.00 | 75 | 999.8 |
| 20260831031928 | 86 | 62 | 3.0 | 8.0 | 0.00 | 0.00 | 0.00 | 76 | 999.8 |
| 20260831031550 | 85 | 344 | 5.0 | 8.0 | 0.00 | 0.00 | 0.00 | 76 | 999.8 |
| 20260831031429 | 85 | 212 | 2.0 | 10.0 | 0.00 | 0.00 | 0.00 | 76 | 999.8 |
| 20260831031041 | 85 | 192 | 6.0 | 16.0 | 0.00 | 0.00 | 0.00 | 76 | 999.8 |
| 20260831030929 | 85 | 279 | 6.0 | 16.0 | 0.00 | 0.00 | 0.00 | 76 | 999.7 |
| 20260831030530 | 85 | 240 | 5.0 | 12.0 | 0.00 | 0.00 | 0.00 | 76 | 999.8 |
| 20260831030429 | 85 | 171 | 7.0 | 12.0 | 0.00 | 0.00 | 0.00 | 76 | 999.8 |
| 20260831030020 | 85 | 170 | 7.0 | 13.0 | 0.00 | 0.00 | 0.00 | 76 | 999.9 |
| 20260831025929 | 85 | 253 | 7.0 | 13.0 | 0.00 | 0.00 | 0.00 | 76 | 999.9 |
| 20260831025510 | 86 | 204 | 6.0 | 13.0 | 0.00 | 0.00 | 0.00 | 75 | 999.9 |
| 20260831025429 | 86 | 191 | 7.0 | 13.0 | 0.00 | 0.00 | 0.00 | 75 | 999.9 |
| 20260831025000 | 86 | 163 | 5.0 | 12.0 | 0.00 | 0.00 | 0.00 | 76 | 999.9 |
| 20260831024929 | 86 | 190 | 5.0 | 12.0 | 0.00 | 0.00 | 0.00 | 76 | 999.9 |
| 20260831024450 | 85 | 204 | 7.0 | 12.0 | 0.00 | 0.00 | 0.00 | 76 | 999.9 |
| 20260831024429 | 85 | 187 | 6.0 | 12.0 | 0.00 | 0.00 | 0.00 | 76 | 999.9 |
| 20260831023940 | 85 | 209 | 5.0 | 10.0 | 0.00 | 0.00 | 0.00 | 76 | 999.9 |
| 20260831023929 | 85 | 213 | 5.0 | 10.0 | 0.00 | 0.00 | 0.00 | 76 | 999.9 |
| 20260831023431 | 85 | 185 | 2.0 | 6.0 | 0.00 | 0.00 | 0.00 | 76 | 999.9 |
| 20260831023429 | 85 | 188 | 2.0 | 6.0 | 0.00 | 0.00 | 0.00 | 76 | 999.9 |
| 20260831022929 | 85 | 219 | 5.0 | 6.0 | 0.00 | 0.00 | 0.00 | 76 | 999.9 |
| 20260831022428 | 85 | 187 | 4.0 | 7.0 | 0.00 | 0.00 | 0.00 | 77 | 999.8 |
| 20260831022410 | 85 | 223 | 4.0 | 7.0 | 0.00 | 0.00 | 0.00 | 77 | 999.8 |
| 20260831021929 | 84 | 171 | 4.0 | 8.0 | 0.00 | 0.00 | 0.00 | 77 | 999.8 |
| 20260831021900 | 84 | 213 | 3.0 | 8.0 | 0.00 | 0.00 | 0.00 | 77 | 999.7 |
| 20260831021428 | 84 | 174 | 4.0 | 7.0 | 0.00 | 0.00 | 0.00 | 77 | 999.8 |
| 20260831021350 | 84 | 213 | 4.0 | 7.0 | 0.00 | 0.00 | 0.00 | 77 | 999.8 |
| 20260831020929 | 84 | 212 | 2.0 | 6.0 | 0.00 | 0.00 | 0.00 | 77 | 999.8 |
| 20260831020840 | 84 | 196 | 3.0 | 6.0 | 0.00 | 0.00 | 0.00 | 77 | 999.8 |
| 20260831020428 | 84 | 178 | 2.0 | 4.0 | 0.00 | 0.00 | 0.00 | 77 | 999.8 |
| 20260831020330 | 84 | 220 | 2.0 | 4.0 | 0.00 | 0.00 | 0.00 | 78 | 999.7 |
| 20260831015929 | 84 | 241 | 2.0 | 6.0 | 0.00 | 0.00 | 0.00 | 78 | 999.7 |
| 20260831015820 | 84 | 227 | 3.0 | 7.0 | 0.00 | 0.00 | 0.00 | 78 | 999.7 |
| 20260831015428 | 84 | 249 | 4.0 | 7.0 | 0.00 | 0.00 | 0.00 | 78 | 999.7 |
| 20260831015310 | 84 | 194 | 4.0 | 7.0 | 0.00 | 0.00 | 0.00 | 77 | 999.6 |
| 20260831014928 | 84 | 193 | 3.0 | 7.0 | 0.00 | 0.00 | 0.00 | 77 | 999.6 |
| 20260831014800 | 84 | 206 | 4.0 | 7.0 | 0.00 | 0.00 | 0.00 | 77 | 999.6 |
| 20260831014428 | 84 | 210 | 4.0 | 7.0 | 0.00 | 0.00 | 0.00 | 78 | 999.6 |
| 20260831014249 | 83 | 194 | 3.0 | 7.0 | 0.00 | 0.00 | 0.00 | 78 | 999.6 |
| 20260831013928 | 83 | 244 | 3.0 | 8.0 | 0.00 | 0.00 | 0.00 | 79 | 999.6 |
| 20260831013740 | 83 | 246 | 4.0 | 8.0 | 0.00 | 0.00 | 0.00 | 79 | 999.7 |
| 20260831013429 | 83 | 222 | 3.0 | 8.0 | 0.00 | 0.00 | 0.00 | 80 | 999.7 |
| 20260831013229 | 83 | 178 | 5.0 | 9.0 | 0.00 | 0.00 | 0.00 | 80 | 999.6 |
| 20260831012928 | 83 | 172 | 6.0 | 9.0 | 0.00 | 0.00 | 0.00 | 79 | 999.6 |
| 20260831012720 | 83 | 185 | 5.0 | 8.0 | 0.00 | 0.00 | 0.00 | 79 | 999.7 |
| 20260831012429 | 83 | 195 | 5.0 | 10.0 | 0.00 | 0.00 | 0.00 | 79 | 999.7 |
| 20260831011928 | 84 | 229 | 6.0 | 9.0 | 0.00 | 0.00 | 0.00 | 78 | 999.7 |
| 20260831011659 | 84 | 176 | 4.0 | 9.0 | 0.00 | 0.00 | 0.00 | 78 | 999.7 |
| 20260831011428 | 84 | 200 | 4.0 | 9.0 | 0.00 | 0.00 | 0.00 | 77 | 999.7 |
| 20260831010928 | 85 | 159 | 5.0 | 10.0 | 0.00 | 0.00 | 0.00 | 76 | 999.8 |
| 20260831010639 | 85 | 190 | 6.0 | 11.0 | 0.00 | 0.00 | 0.00 | 75 | 999.7 |
| 20260831010428 | 85 | 241 | 1.0 | 11.0 | 0.00 | 0.00 | 0.00 | 76 | 999.7 |
| 20260831010130 | 84 | 44 | 2.0 | 12.0 | 0.00 | 0.00 | 0.00 | 77 | 999.8 |
| 20260831005928 | 84 | 228 | 6.0 | 12.0 | 0.00 | 0.00 | 0.00 | 77 | 999.8 |
| 20260831005619 | 84 | 248 | 5.0 | 7.0 | 0.00 | 0.00 | 0.00 | 78 | 999.8 |
| 20260831005428 | 83 | 249 | 2.0 | 6.0 | 0.00 | 0.00 | 0.00 | 79 | 999.9 |
| 20260831005110 | 83 | 229 | 3.0 | 7.0 | 0.00 | 0.00 | 0.00 | 79 | 999.9 |
| 20260831004927 | 83 | 256 | 3.0 | 7.0 | 0.00 | 0.00 | 0.00 | 80 | 1000.0 |
| 20260831004559 | 83 | 221 | 3.0 | 6.0 | 0.00 | 0.00 | 0.00 | 80 | 1000.0 |
| 20260831004428 | 82 | 174 | 4.0 | 6.0 | 0.00 | 0.00 | 0.00 | 80 | 999.9 |
| 20260831004049 | 82 | 154 | 3.0 | 8.0 | 0.00 | 0.00 | 0.00 | 80 | 999.9 |
| 20260831003927 | 83 | 180 | 4.0 | 8.0 | 0.00 | 0.00 | 0.00 | 80 | 999.9 |
| 20260831003539 | 83 | 186 | 4.0 | 7.0 | 0.00 | 0.00 | 0.00 | 80 | 999.9 |
| 20260831003428 | 83 | 167 | 4.0 | 6.0 | 0.00 | 0.00 | 0.00 | 80 | 999.9 |
| 20260831003029 | 83 | 246 | 3.0 | 6.0 | 0.00 | 0.00 | 0.00 | 79 | 999.9 |
| 20260831002928 | 83 | 230 | 3.0 | 6.0 | 0.00 | 0.00 | 0.00 | 79 | 1000.0 |
| 20260831002519 | 83 | 162 | 4.0 | 8.0 | 0.00 | 0.00 | 0.00 | 79 | 999.9 |
| 20260831002427 | 83 | 157 | 4.0 | 8.0 | 0.00 | 0.00 | 0.00 | 79 | 999.9 |
| 20260831002009 | 84 | 187 | 4.0 | 9.0 | 0.00 | 0.00 | 0.00 | 78 | 999.9 |
| 20260831001928 | 84 | 177 | 4.0 | 9.0 | 0.00 | 0.00 | 0.00 | 78 | 999.9 |
| 20260831001427 | 84 | 222 | 2.0 | 4.0 | 0.00 | 0.00 | 0.00 | 77 | 999.9 |
| 20260831000949 | 84 | 194 | 2.0 | 4.0 | 0.00 | 0.00 | 0.00 | 77 | 1000.0 |
| 20260831000928 | 84 | 205 | 3.0 | 4.0 | 0.00 | 0.00 | 0.00 | 77 | 1000.0 |
| 20260831000439 | 84 | 342 | 1.0 | 6.0 | 0.00 | 0.00 | 0.00 | 77 | 999.9 |
| 20260831000427 | 84 | 233 | 1.0 | 6.0 | 0.00 | 0.00 | 0.00 | 77 | 999.9 |
| 20260830235930 | 83 | 215 | 2.0 | 4.0 | 0.00 | 0.00 | 0.00 | 77 | 999.9 |
| 20260830235927 | 83 | 223 | 2.0 | 4.0 | 0.00 | 0.00 | 0.00 | 77 | 999.9 |
| 20260830235428 | 83 | 218 | 2.0 | 4.0 | 0.00 | 0.00 | 0.00 | 78 | 999.9 |
| 20260830235419 | 83 | 214 | 2.0 | 4.0 | 0.00 | 0.00 | 0.00 | 78 | 999.8 |
| 20260830234927 | 83 | 160 | 1.0 | 2.0 | 0.00 | 0.00 | 0.00 | 79 | 999.8 |
| 20260830234428 | 83 | 22 | 0.0 | 1.0 | 0.00 | 0.00 | 0.00 | 80 | 999.8 |
| 20260830234359 | 82 | 22 | 0.0 | 1.0 | 0.00 | 0.00 | 0.00 | 80 | 999.7 |
| 20260830233927 | 82 | 273 | 1.0 | 4.0 | 0.00 | 0.00 | 0.00 | 80 | 999.7 |
| 20260830233849 | 82 | 263 | 1.0 | 4.0 | 0.00 | 0.00 | 0.00 | 80 | 999.7 |
| 20260830233427 | 82 | 204 | 0.0 | 5.0 | 0.00 | 0.00 | 0.00 | 80 | 999.7 |
| 20260830233339 | 82 | 237 | 1.0 | 5.0 | 0.00 | 0.00 | 0.00 | 80 | 999.7 |
| 20260830232927 | 82 | 233 | 1.0 | 5.0 | 0.00 | 0.00 | 0.00 | 79 | 999.6 |
| 20260830232828 | 82 | 198 | 2.0 | 5.0 | 0.00 | 0.00 | 0.00 | 79 | 999.6 |
| 20260830232427 | 83 | 198 | 1.0 | 3.0 | 0.00 | 0.00 | 0.00 | 79 | 999.5 |
| 20260830232319 | 83 | 198 | 2.0 | 3.0 | 0.00 | 0.00 | 0.00 | 79 | 999.4 |
| 20260830231927 | 82 | 3 | 0.0 | 1.0 | 0.00 | 0.00 | 0.00 | 79 | 999.4 |
| 20260830231808 | 82 | 18 | 0.0 | 1.0 | 0.00 | 0.00 | 0.00 | 79 | 999.4 |
| 20260830231427 | 82 | 259 | 0.0 | 1.0 | 0.00 | 0.00 | 0.00 | 80 | 999.3 |
| 20260830230927 | 82 | 3 | 0.0 | 0.0 | 0.00 | 0.00 | 0.00 | 80 | 999.4 |
| 20260830230748 | 82 | 279 | 0.0 | 0.0 | 0.00 | 0.00 | 0.00 | 80 | 999.4 |
| 20260830230427 | 82 | 289 | 0.0 | 1.0 | 0.00 | 0.00 | 0.00 | 80 | 999.3 |
| 20260830230239 | 82 | 268 | 0.0 | 1.0 | 0.00 | 0.00 | 0.00 | 80 | 999.3 |
| 20260830225927 | 82 | 293 | 0.0 | 1.0 | 0.00 | 0.00 | 0.00 | 81 | 999.3 |
| 20260830225728 | 82 | 307 | 0.0 | 2.0 | 0.00 | 0.00 | 0.00 | 81 | 999.3 |
| 20260830225427 | 82 | 266 | 0.0 | 2.0 | 0.00 | 0.00 | 0.00 | 81 | 999.2 |
| 20260830225219 | 82 | 243 | 1.0 | 2.0 | 0.00 | 0.00 | 0.00 | 81 | 999.2 |
| 20260830224927 | 82 | 301 | 1.0 | 1.0 | 0.00 | 0.00 | 0.00 | 81 | 999.1 |
| 20260830224708 | 81 | 272 | 0.0 | 0.0 | 0.00 | 0.00 | 0.00 | 81 | 999.1 |
| 20260830224427 | 81 | 289 | 0.0 | 1.0 | 0.00 | 0.00 | 0.00 | 81 | 999.1 |
| 20260830224159 | 81 | 287 | 0.0 | 2.0 | 0.00 | 0.00 | 0.00 | 81 | 999.1 |
| 20260830223926 | 81 | 218 | 1.0 | 4.0 | 0.00 | 0.00 | 0.00 | 80 | 999.0 |
| 20260830223648 | 82 | 204 | 2.0 | 4.0 | 0.00 | 0.00 | 0.00 | 80 | 999.0 |
| 20260830223427 | 82 | 205 | 2.0 | 4.0 | 0.00 | 0.00 | 0.00 | 80 | 999.0 |
| 20260830223138 | 81 | 279 | 0.0 | 1.0 | 0.00 | 0.00 | 0.00 | 80 | 999.0 |
| 20260830222926 | 81 | 266 | 0.0 | 2.0 | 0.00 | 0.00 | 0.00 | 80 | 999.0 |
| 20260830222628 | 82 | 196 | 1.0 | 2.0 | 0.00 | 0.00 | 0.00 | 80 | 998.9 |
| 20260830222427 | 81 | 188 | 1.0 | 2.0 | 0.00 | 0.00 | 0.00 | 80 | 999.0 |
| 20260830222118 | 81 | 180 | 0.0 | 4.0 | 0.00 | 0.00 | 0.00 | 80 | 998.9 |
| 20260830221926 | 81 | 189 | 1.0 | 4.0 | 0.00 | 0.00 | 0.00 | 80 | 998.9 |
| 20260830221427 | 81 | 209 | 2.0 | 2.0 | 0.00 | 0.00 | 0.00 | 80 | 998.9 |
| 20260830221058 | 81 | 251 | 0.0 | 2.0 | 0.00 | 0.00 | 0.00 | 80 | 998.8 |
| 20260830220927 | 81 | 245 | 0.0 | 2.0 | 0.00 | 0.00 | 0.00 | 80 | 998.8 |
| 20260830220548 | 81 | 34 | 1.0 | 2.0 | 0.00 | 0.00 | 0.00 | 81 | 998.8 |
| 20260830220426 | 81 | 38 | 0.0 | 4.0 | 0.00 | 0.00 | 0.00 | 81 | 998.8 |
| 20260830220038 | 81 | 173 | 2.0 | 4.0 | 0.00 | 0.00 | 0.00 | 81 | 998.8 |
| 20260830215926 | 81 | 209 | 0.0 | 1.0 | 0.00 | 0.00 | 0.00 | 81 | 998.7 |
| 20260830215528 | 81 | 257 | 1.0 | 2.0 | 0.00 | 0.00 | 0.00 | 81 | 998.7 |
| 20260830215426 | 81 | 214 | 1.0 | 3.0 | 0.00 | 0.00 | 0.00 | 81 | 998.7 |
| 20260830215018 | 81 | 212 | 2.0 | 4.0 | 0.00 | 0.00 | 0.00 | 80 | 998.7 |
| 20260830214926 | 81 | 228 | 2.0 | 4.0 | 0.00 | 0.00 | 0.00 | 80 | 998.6 |
| 20260830214508 | 81 | 154 | 3.0 | 6.0 | 0.00 | 0.00 | 0.00 | 81 | 998.6 |
| 20260830214427 | 81 | 185 | 1.0 | 6.0 | 0.00 | 0.00 | 0.00 | 81 | 998.6 |
| 20260830213958 | 81 | 211 | 1.0 | 4.0 | 0.00 | 0.00 | 0.00 | 81 | 998.5 |
| 20260830213926 | 81 | 208 | 1.0 | 4.0 | 0.00 | 0.00 | 0.00 | 81 | 998.5 |
| 20260830213448 | 81 | 193 | 1.0 | 2.0 | 0.00 | 0.00 | 0.00 | 82 | 998.4 |
| 20260830213426 | 81 | 230 | 1.0 | 2.0 | 0.00 | 0.00 | 0.00 | 82 | 998.4 |
| 20260830212938 | 81 | 209 | 1.0 | 2.0 | 0.00 | 0.00 | 0.00 | 82 | 998.4 |
| 20260830212926 | 81 | 212 | 1.0 | 2.0 | 0.00 | 0.00 | 0.00 | 82 | 998.5 |
| 20260830212428 | 81 | 222 | 1.0 | 2.0 | 0.00 | 0.00 | 0.00 | 82 | 998.4 |
| 20260830212426 | 81 | 223 | 1.0 | 2.0 | 0.00 | 0.00 | 0.00 | 82 | 998.4 |
| 20260830211927 | 81 | 59 | 0.0 | 1.0 | 0.00 | 0.00 | 0.00 | 82 | 998.4 |
| 20260830211918 | 81 | 61 | 0.0 | 1.0 | 0.00 | 0.00 | 0.00 | 82 | 998.4 |
| 20260830211426 | 81 | 340 | 0.0 | 2.0 | 0.00 | 0.00 | 0.00 | 82 | 998.4 |
| 20260830211408 | 81 | 336 | 0.0 | 2.0 | 0.00 | 0.00 | 0.00 | 82 | 998.3 |
| 20260830210927 | 81 | 218 | 1.0 | 2.0 | 0.00 | 0.00 | 0.00 | 83 | 998.3 |
| 20260830210858 | 81 | 204 | 1.0 | 2.0 | 0.00 | 0.00 | 0.00 | 83 | 998.2 |
| 20260830210426 | 81 | 243 | 0.0 | 1.0 | 0.00 | 0.00 | 0.00 | 83 | 998.2 |
| 20260830210347 | 81 | 230 | 1.0 | 1.0 | 0.00 | 0.00 | 0.00 | 83 | 998.2 |
| 20260830205926 | 81 | 347 | 0.0 | 0.0 | 0.00 | 0.00 | 0.00 | 83 | 998.1 |
| 20260830205838 | 81 | 347 | 0.0 | 0.0 | 0.00 | 0.00 | 0.00 | 83 | 998.2 |
| 20260830205426 | 81 | 9 | 0.0 | 2.0 | 0.00 | 0.00 | 0.00 | 83 | 998.1 |
| 20260830205327 | 81 | 12 | 0.0 | 2.0 | 0.00 | 0.00 | 0.00 | 83 | 998.1 |
| 20260830204926 | 81 | 43 | 1.0 | 2.0 | 0.00 | 0.00 | 0.00 | 84 | 998.1 |
| 20260830204818 | 81 | 43 | 1.0 | 2.0 | 0.00 | 0.00 | 0.00 | 83 | 998.1 |
| 20260830204426 | 80 | 208 | 1.0 | 3.0 | 0.00 | 0.00 | 0.00 | 84 | 998.0 |
| 20260830204307 | 80 | 229 | 2.0 | 3.0 | 0.00 | 0.00 | 0.00 | 84 | 998.0 |
| 20260830203926 | 80 | 243 | 0.0 | 1.0 | 0.00 | 0.00 | 0.00 | 84 | 998.1 |
| 20260830203758 | 80 | 43 | 0.0 | 2.0 | 0.00 | 0.00 | 0.00 | 84 | 998.1 |
| 20260830203426 | 81 | 22 | 1.0 | 3.0 | 0.00 | 0.00 | 0.00 | 84 | 998.1 |
| 20260830203247 | 81 | 49 | 1.0 | 3.0 | 0.00 | 0.00 | 0.00 | 84 | 998.2 |
| 20260830202926 | 81 | 88 | 0.0 | 2.0 | 0.00 | 0.00 | 0.00 | 84 | 998.2 |
| 20260830202738 | 80 | 235 | 0.0 | 2.0 | 0.00 | 0.00 | 0.00 | 84 | 998.2 |
| 20260830202426 | 80 | 253 | 1.0 | 4.0 | 0.00 | 0.00 | 0.00 | 84 | 998.2 |
| 20260830202227 | 81 | 238 | 1.0 | 5.0 | 0.00 | 0.00 | 0.00 | 84 | 998.2 |
| 20260830201926 | 81 | 233 | 3.0 | 5.0 | 0.00 | 0.00 | 0.00 | 84 | 998.2 |
| 20260830201717 | 81 | 225 | 3.0 | 6.0 | 0.00 | 0.00 | 0.00 | 84 | 998.3 |
| 20260830201426 | 81 | 249 | 3.0 | 6.0 | 0.00 | 0.00 | 0.00 | 84 | 998.2 |
| 20260830201207 | 81 | 236 | 3.0 | 6.0 | 0.00 | 0.00 | 0.00 | 83 | 998.2 |
| 20260830200925 | 81 | 260 | 3.0 | 6.0 | 0.00 | 0.00 | 0.00 | 83 | 998.2 |
| 20260830200658 | 81 | 228 | 2.0 | 4.0 | 0.00 | 0.00 | 0.00 | 83 | 998.2 |
| 20260830200427 | 81 | 225 | 1.0 | 4.0 | 0.00 | 0.00 | 0.00 | 83 | 998.3 |
| 20260830200147 | 81 | 277 | 2.0 | 4.0 | 0.00 | 0.00 | 0.00 | 83 | 998.3 |
| 20260830195925 | 81 | 247 | 0.0 | 1.0 | 0.00 | 0.00 | 0.00 | 84 | 998.4 |
| 20260830195637 | 81 | 237 | 1.0 | 1.0 | 0.00 | 0.00 | 0.00 | 84 | 998.4 |
| 20260830195426 | 81 | 247 | 0.0 | 1.0 | 0.00 | 0.00 | 0.00 | 84 | 998.5 |
| 20260830195127 | 81 | 226 | 0.0 | 1.0 | 0.00 | 0.00 | 0.00 | 84 | 998.4 |
| 20260830194926 | 81 | 240 | 0.0 | 2.0 | 0.00 | 0.00 | 0.00 | 84 | 998.4 |
| 20260830194617 | 81 | 204 | 1.0 | 2.0 | 0.00 | 0.00 | 0.00 | 84 | 998.4 |
| 20260830194425 | 81 | 231 | 1.0 | 2.0 | 0.00 | 0.00 | 0.00 | 84 | 998.4 |
| 20260830194107 | 81 | 172 | 1.0 | 5.0 | 0.00 | 0.00 | 0.00 | 84 | 998.5 |
| 20260830193926 | 81 | 236 | 1.0 | 5.0 | 0.00 | 0.00 | 0.00 | 84 | 998.4 |
| 20260830193556 | 81 | 180 | 2.0 | 4.0 | 0.00 | 0.00 | 0.00 | 84 | 998.4 |
| 20260830193425 | 81 | 151 | 2.0 | 4.0 | 0.00 | 0.00 | 0.00 | 84 | 998.4 |
| 20260830193047 | 81 | 188 | 2.0 | 3.0 | 0.00 | 0.00 | 0.00 | 84 | 998.3 |
| 20260830192926 | 81 | 187 | 2.0 | 3.0 | 0.00 | 0.00 | 0.00 | 84 | 998.4 |
| 20260830192536 | 81 | 184 | 2.0 | 3.0 | 0.00 | 0.00 | 0.00 | 84 | 998.3 |
| 20260830192425 | 81 | 196 | 1.0 | 3.0 | 0.00 | 0.00 | 0.00 | 84 | 998.4 |
| 20260830192027 | 81 | 189 | 1.0 | 2.0 | 0.00 | 0.00 | 0.00 | 84 | 998.4 |
| 20260830191926 | 81 | 196 | 1.0 | 1.0 | 0.00 | 0.00 | 0.00 | 84 | 998.4 |
| 20260830191516 | 81 | 272 | 0.0 | 1.0 | 0.00 | 0.00 | 0.00 | 85 | 998.4 |
| 20260830191425 | 81 | 278 | 0.0 | 1.0 | 0.00 | 0.00 | 0.00 | 85 | 998.4 |
| 20260830190925 | 81 | 229 | 0.0 | 1.0 | 0.00 | 0.00 | 0.00 | 85 | 998.4 |
| 20260830190456 | 81 | 245 | 0.0 | 1.0 | 0.00 | 0.00 | 0.00 | 85 | 998.5 |
| 20260830190425 | 81 | 243 | 0.0 | 1.0 | 0.00 | 0.00 | 0.00 | 85 | 998.5 |
| 20260830185947 | 81 | 332 | 1.0 | 4.0 | 0.00 | 0.00 | 0.00 | 85 | 998.5 |
| 20260830185925 | 81 | 212 | 2.0 | 4.0 | 0.00 | 0.00 | 0.00 | 85 | 998.5 |
| 20260830185436 | 81 | 237 | 0.0 | 4.0 | 0.00 | 0.00 | 0.00 | 85 | 998.4 |
| 20260830185425 | 81 | 232 | 1.0 | 4.0 | 0.00 | 0.00 | 0.00 | 85 | 998.4 |
| 20260830184927 | 81 | 169 | 1.0 | 5.0 | 0.00 | 0.00 | 0.00 | 85 | 998.4 |
| 20260830184925 | 81 | 161 | 1.0 | 5.0 | 0.00 | 0.00 | 0.00 | 85 | 998.4 |
| 20260830184425 | 81 | 243 | 1.0 | 4.0 | 0.00 | 0.00 | 0.00 | 85 | 998.4 |
| 20260830184416 | 81 | 251 | 1.0 | 4.0 | 0.00 | 0.00 | 0.00 | 85 | 998.4 |
| 20260830183926 | 81 | 211 | 2.0 | 4.0 | 0.00 | 0.00 | 0.00 | 84 | 998.4 |
| 20260830183906 | 81 | 218 | 2.0 | 4.0 | 0.00 | 0.00 | 0.00 | 84 | 998.4 |
| 20260830183424 | 81 | 217 | 1.0 | 4.0 | 0.00 | 0.00 | 0.00 | 84 | 998.5 |
| 20260830183356 | 81 | 184 | 1.0 | 4.0 | 0.00 | 0.00 | 0.00 | 84 | 998.5 |
| 20260830182925 | 81 | 192 | 3.0 | 5.0 | 0.00 | 0.00 | 0.00 | 83 | 998.5 |
| 20260830182846 | 81 | 201 | 3.0 | 5.0 | 0.00 | 0.00 | 0.00 | 83 | 998.5 |
| 20260830182424 | 81 | 212 | 1.0 | 4.0 | 0.00 | 0.00 | 0.00 | 83 | 998.6 |
| 20260830182336 | 81 | 182 | 2.0 | 4.0 | 0.00 | 0.00 | 0.00 | 83 | 998.7 |
| 20260830181925 | 81 | 198 | 1.0 | 3.0 | 0.00 | 0.00 | 0.00 | 83 | 998.7 |
| 20260830181424 | 82 | 211 | 2.0 | 4.0 | 0.00 | 0.00 | 0.00 | 82 | 998.7 |
| 20260830181316 | 82 | 177 | 2.0 | 4.0 | 0.00 | 0.00 | 0.00 | 82 | 998.7 |
| 20260830180925 | 82 | 220 | 2.0 | 3.0 | 0.00 | 0.00 | 0.00 | 82 | 998.7 |
| 20260830180807 | 82 | 199 | 2.0 | 3.0 | 0.00 | 0.00 | 0.00 | 81 | 998.7 |
| 20260830180424 | 82 | 172 | 1.0 | 3.0 | 0.00 | 0.00 | 0.00 | 81 | 998.7 |
| 20260830180256 | 82 | 250 | 1.0 | 3.0 | 0.00 | 0.00 | 0.00 | 81 | 998.7 |
| 20260830175925 | 82 | 251 | 1.0 | 4.0 | 0.00 | 0.00 | 0.00 | 80 | 998.8 |
| 20260830175746 | 82 | 286 | 2.0 | 4.0 | 0.00 | 0.00 | 0.00 | 80 | 998.8 |
| 20260830175424 | 83 | 164 | 1.0 | 3.0 | 0.00 | 0.00 | 0.00 | 79 | 998.9 |
| 20260830175236 | 83 | 142 | 0.0 | 3.0 | 0.00 | 0.00 | 0.00 | 79 | 998.8 |
| 20260830174925 | 83 | 80 | 1.0 | 4.0 | 0.00 | 0.00 | 0.00 | 79 | 998.9 |
| 20260830174726 | 83 | 55 | 1.0 | 4.0 | 0.00 | 0.00 | 0.00 | 79 | 998.9 |
| 20260830174425 | 83 | 71 | 2.0 | 5.0 | 0.00 | 0.00 | 0.00 | 79 | 998.9 |
| 20260830174216 | 83 | 29 | 1.0 | 5.0 | 0.00 | 0.00 | 0.00 | 79 | 999.0 |
| 20260830173925 | 83 | 54 | 3.0 | 5.0 | 0.00 | 0.00 | 0.00 | 79 | 999.0 |
| 20260830173706 | 83 | 42 | 1.0 | 7.0 | 0.00 | 0.00 | 0.00 | 79 | 999.0 |
| 20260830173424 | 83 | 79 | 4.0 | 7.0 | 0.00 | 0.00 | 0.00 | 79 | 999.1 |
| 20260830173156 | 83 | 7 | 2.0 | 4.0 | 0.00 | 0.00 | 0.00 | 79 | 999.1 |
| 20260830172925 | 83 | 52 | 1.0 | 3.0 | 0.00 | 0.00 | 0.00 | 79 | 999.1 |
| 20260830172646 | 83 | 30 | 1.0 | 3.0 | 0.00 | 0.00 | 0.00 | 79 | 999.1 |
| 20260830172424 | 83 | 87 | 2.0 | 3.0 | 0.00 | 0.00 | 0.00 | 79 | 999.1 |
| 20260830172136 | 83 | 40 | 0.0 | 2.0 | 0.00 | 0.00 | 0.00 | 79 | 999.1 |
| 20260830171925 | 83 | 175 | 0.0 | 2.0 | 0.00 | 0.00 | 0.00 | 79 | 999.1 |
| 20260830171625 | 83 | 73 | 0.0 | 2.0 | 0.00 | 0.00 | 0.00 | 79 | 999.1 |
| 20260830171424 | 83 | 14 | 1.0 | 3.0 | 0.00 | 0.00 | 0.00 | 79 | 999.1 |
| 20260830171116 | 83 | 34 | 1.0 | 5.0 | 0.00 | 0.00 | 0.00 | 79 | 999.0 |
| 20260830170925 | 83 | 46 | 1.0 | 5.0 | 0.00 | 0.00 | 0.00 | 79 | 999.1 |
| 20260830170605 | 83 | 48 | 2.0 | 5.0 | 0.00 | 0.00 | 0.00 | 79 | 999.1 |
| 20260830170424 | 83 | 59 | 1.0 | 3.0 | 0.00 | 0.00 | 0.00 | 79 | 999.1 |
| 20260830170056 | 83 | 181 | 0.0 | 3.0 | 0.00 | 0.00 | 0.00 | 79 | 999.2 |
| 20260830165924 | 83 | 136 | 1.0 | 5.0 | 0.00 | 0.00 | 0.00 | 79 | 999.2 |
| 20260830165424 | 83 | 219 | 1.0 | 8.0 | 0.00 | 0.00 | 0.00 | 79 | 999.2 |
| 20260830165035 | 83 | 75 | 1.0 | 6.0 | 0.00 | 0.00 | 0.00 | 80 | 999.2 |
| 20260830164924 | 83 | 42 | 3.0 | 6.0 | 0.00 | 0.00 | 0.00 | 80 | 999.2 |
| 20260830164525 | 83 | 24 | 1.0 | 5.0 | 0.00 | 0.00 | 0.00 | 80 | 999.3 |
| 20260830164424 | 82 | 68 | 1.0 | 5.0 | 0.00 | 0.00 | 0.00 | 81 | 999.3 |
| 20260830164015 | 82 | 41 | 2.0 | 4.0 | 0.00 | 0.00 | 0.00 | 81 | 999.4 |
| 20260830163924 | 82 | 45 | 2.0 | 4.0 | 0.00 | 0.00 | 0.00 | 81 | 999.4 |
| 20260830163505 | 82 | 338 | 0.0 | 3.0 | 0.00 | 0.00 | 0.00 | 82 | 999.4 |
| 20260830163424 | 82 | 192 | 1.0 | 3.0 | 0.00 | 0.00 | 0.00 | 82 | 999.4 |
| 20260830162955 | 82 | 247 | 0.0 | 2.0 | 0.00 | 0.00 | 0.00 | 82 | 999.5 |
| 20260830162924 | 82 | 263 | 1.0 | 2.0 | 0.00 | 0.00 | 0.00 | 82 | 999.6 |
| 20260830162445 | 82 | 204 | 1.0 | 2.0 | 0.00 | 0.00 | 0.00 | 82 | 999.7 |
| 20260830162424 | 82 | 212 | 1.0 | 2.0 | 0.00 | 0.00 | 0.00 | 82 | 999.6 |
| 20260830161936 | 82 | 182 | 1.0 | 2.0 | 0.00 | 0.00 | 0.00 | 82 | 999.7 |
| 20260830161924 | 82 | 168 | 1.0 | 2.0 | 0.00 | 0.00 | 0.00 | 82 | 999.8 |
| 20260830161426 | 82 | 166 | 1.0 | 3.0 | 0.00 | 0.00 | 0.00 | 82 | 999.8 |
| 20260830161424 | 82 | 161 | 1.0 | 3.0 | 0.00 | 0.00 | 0.00 | 82 | 999.8 |
| 20260830160924 | 82 | 191 | 2.0 | 3.0 | 0.00 | 0.00 | 0.00 | 82 | 999.8 |
| 20260830160915 | 82 | 215 | 2.0 | 3.0 | 0.00 | 0.00 | 0.00 | 82 | 999.8 |
| 20260830160424 | 83 | 135 | 0.0 | 1.0 | 0.00 | 0.00 | 0.00 | 81 | 999.8 |
| 20260830155924 | 83 | 161 | 0.0 | 1.0 | 0.00 | 0.00 | 0.00 | 81 | 999.8 |
| 20260830155855 | 83 | 40 | 0.0 | 1.0 | 0.00 | 0.00 | 0.00 | 81 | 999.8 |
| 20260830155424 | 83 | 61 | 1.0 | 2.0 | 0.00 | 0.00 | 0.00 | 81 | 999.9 |
| 20260830155345 | 83 | 77 | 1.0 | 2.0 | 0.00 | 0.00 | 0.00 | 81 | 1000.0 |
| 20260830154923 | 83 | 221 | 1.0 | 3.0 | 0.00 | 0.00 | 0.00 | 81 | 1000.0 |
| 20260830154835 | 83 | 213 | 1.0 | 3.0 | 0.00 | 0.00 | 0.00 | 81 | 1000.0 |
| 20260830154424 | 83 | 164 | 1.0 | 2.0 | 0.00 | 0.00 | 0.00 | 81 | 1000.0 |
| 20260830154325 | 83 | 186 | 1.0 | 2.0 | 0.00 | 0.00 | 0.00 | 81 | 1000.0 |
| 20260830153923 | 83 | 222 | 1.0 | 3.0 | 0.00 | 0.00 | 0.00 | 81 | 1000.1 |
| 20260830153815 | 83 | 262 | 1.0 | 3.0 | 0.00 | 0.00 | 0.00 | 81 | 1000.0 |
| 20260830153424 | 83 | 236 | 1.0 | 4.0 | 0.00 | 0.00 | 0.00 | 81 | 1000.0 |
| 20260830153305 | 83 | 131 | 1.0 | 4.0 | 0.00 | 0.00 | 0.00 | 81 | 1000.1 |
| 20260830152923 | 83 | 254 | 1.0 | 2.0 | 0.00 | 0.00 | 0.00 | 80 | 1000.0 |
| 20260830152755 | 83 | 257 | 1.0 | 3.0 | 0.00 | 0.00 | 0.00 | 80 | 1000.0 |
| 20260830152424 | 83 | 215 | 2.0 | 3.0 | 0.00 | 0.00 | 0.00 | 80 | 1000.0 |
| 20260830152244 | 83 | 238 | 2.0 | 3.0 | 0.00 | 0.00 | 0.00 | 80 | 1000.0 |
| 20260830151923 | 83 | 253 | 1.0 | 5.0 | 0.00 | 0.00 | 0.00 | 80 | 1000.0 |
| 20260830151735 | 83 | 259 | 3.0 | 5.0 | 0.00 | 0.00 | 0.00 | 80 | 1000.0 |
| 20260830151424 | 83 | 278 | 2.0 | 4.0 | 0.00 | 0.00 | 0.00 | 80 | 1000.0 |
| 20260830151224 | 83 | 350 | 2.0 | 4.0 | 0.00 | 0.00 | 0.00 | 80 | 1000.0 |
| 20260830150923 | 83 | 12 | 1.0 | 5.0 | 0.00 | 0.00 | 0.00 | 80 | 999.9 |
| 20260830150715 | 83 | 106 | 2.0 | 5.0 | 0.00 | 0.00 | 0.00 | 80 | 1000.0 |
| 20260830150424 | 83 | 257 | 0.0 | 4.0 | 0.00 | 0.00 | 0.00 | 80 | 1000.0 |
| 20260830150204 | 83 | 238 | 3.0 | 4.0 | 0.00 | 0.00 | 0.00 | 80 | 999.9 |
| 20260830145923 | 83 | 209 | 1.0 | 4.0 | 0.00 | 0.00 | 0.00 | 80 | 1000.0 |
| 20260830145655 | 83 | 228 | 1.0 | 4.0 | 0.00 | 0.00 | 0.00 | 80 | 999.9 |
| 20260830145424 | 83 | 55 | 1.0 | 8.0 | 0.00 | 0.00 | 0.00 | 79 | 999.9 |
| 20260830145144 | 83 | 339 | 2.0 | 8.0 | 0.00 | 0.00 | 0.00 | 80 | 1000.0 |
| 20260830144923 | 83 | 81 | 1.0 | 3.0 | 0.00 | 0.00 | 0.00 | 80 | 999.9 |
| 20260830144635 | 83 | 179 | 2.0 | 5.0 | 0.00 | 0.00 | 0.00 | 80 | 999.9 |
| 20260830144423 | 83 | 230 | 3.0 | 5.0 | 0.00 | 0.00 | 0.00 | 80 | 999.8 |
| 20260830143923 | 83 | 199 | 1.0 | 3.0 | 0.00 | 0.00 | 0.00 | 81 | 999.8 |
| 20260830143615 | 83 | 220 | 1.0 | 3.0 | 0.00 | 0.00 | 0.00 | 81 | 999.8 |
| 20260830143424 | 83 | 220 | 2.0 | 3.0 | 0.00 | 0.00 | 0.00 | 81 | 999.8 |
| 20260830143104 | 83 | 145 | 0.0 | 2.0 | 0.00 | 0.00 | 0.00 | 81 | 999.8 |
| 20260830142923 | 83 | 143 | 0.0 | 2.0 | 0.00 | 0.00 | 0.00 | 81 | 999.8 |
| 20260830142555 | 83 | 250 | 1.0 | 2.0 | 0.00 | 0.00 | 0.00 | 81 | 999.8 |
| 20260830142423 | 83 | 191 | 1.0 | 2.0 | 0.00 | 0.00 | 0.00 | 80 | 999.7 |
| 20260830142044 | 83 | 203 | 1.0 | 3.0 | 0.00 | 0.00 | 0.00 | 80 | 999.8 |
| 20260830141923 | 83 | 219 | 2.0 | 3.0 | 0.00 | 0.00 | 0.00 | 80 | 999.8 |
| 20260830141535 | 83 | 124 | 1.0 | 2.0 | 0.00 | 0.00 | 0.00 | 81 | 999.9 |
| 20260830141422 | 83 | 116 | 1.0 | 2.0 | 0.00 | 0.00 | 0.00 | 81 | 999.9 |
| 20260830141024 | 83 | 62 | 1.0 | 4.0 | 0.00 | 0.00 | 0.00 | 81 | 999.8 |
| 20260830140923 | 83 | 62 | 1.0 | 4.0 | 0.00 | 0.00 | 0.00 | 81 | 999.8 |
| 20260830140515 | 83 | 79 | 1.0 | 2.0 | 0.00 | 0.00 | 0.00 | 81 | 999.8 |
| 20260830140422 | 83 | 25 | 1.0 | 2.0 | 0.00 | 0.00 | 0.00 | 81 | 999.7 |
| 20260830140004 | 83 | 264 | 0.0 | 4.0 | 0.00 | 0.00 | 0.00 | 81 | 999.8 |
| 20260830135923 | 83 | 268 | 0.0 | 4.0 | 0.00 | 0.00 | 0.00 | 81 | 999.7 |
| 20260830135453 | 83 | 26 | 0.0 | 3.0 | 0.00 | 0.00 | 0.00 | 81 | 999.8 |
| 20260830135422 | 83 | 8 | 0.0 | 3.0 | 0.00 | 0.00 | 0.00 | 81 | 999.8 |
| 20260830134944 | 83 | 345 | 0.0 | 4.0 | 0.00 | 0.00 | 0.00 | 81 | 999.8 |
| 20260830134923 | 83 | 284 | 0.0 | 4.0 | 0.00 | 0.00 | 0.00 | 81 | 999.8 |
| 20260830134433 | 83 | 17 | 0.0 | 2.0 | 0.00 | 0.00 | 0.00 | 81 | 999.9 |
| 20260830134422 | 83 | 23 | 0.0 | 2.0 | 0.00 | 0.00 | 0.00 | 81 | 999.9 |
| 20260830133925 | 83 | 3 | 1.0 | 2.0 | 0.00 | 0.00 | 0.00 | 81 | 1000.0 |
| 20260830133923 | 83 | 5 | 1.0 | 2.0 | 0.00 | 0.00 | 0.00 | 81 | 1000.0 |
| 20260830133422 | 83 | 19 | 1.0 | 4.0 | 0.00 | 0.00 | 0.00 | 81 | 999.9 |
| 20260830133413 | 83 | 101 | 0.0 | 4.0 | 0.00 | 0.00 | 0.00 | 81 | 1000.0 |
| 20260830132923 | 83 | 34 | 1.0 | 4.0 | 0.00 | 0.00 | 0.00 | 81 | 999.9 |
| 20260830132904 | 83 | 75 | 1.0 | 4.0 | 0.00 | 0.00 | 0.00 | 81 | 999.9 |
| 20260830132422 | 83 | 45 | 1.0 | 8.0 | 0.00 | 0.00 | 0.00 | 81 | 999.9 |
| 20260830132353 | 83 | 30 | 3.0 | 8.0 | 0.00 | 0.00 | 0.00 | 81 | 1000.0 |
| 20260830131923 | 83 | 39 | 1.0 | 5.0 | 0.00 | 0.00 | 0.00 | 81 | 999.9 |
| 20260830131844 | 83 | 31 | 1.0 | 7.0 | 0.00 | 0.00 | 0.00 | 81 | 999.9 |
| 20260830131422 | 83 | 38 | 4.0 | 7.0 | 0.00 | 0.00 | 0.00 | 81 | 999.9 |
| 20260830131334 | 83 | 54 | 4.0 | 7.0 | 0.00 | 0.00 | 0.00 | 81 | 999.9 |
| 20260830130923 | 83 | 53 | 4.0 | 7.0 | 0.00 | 0.00 | 0.00 | 82 | 999.8 |
| 20260830130422 | 82 | 83 | 7.0 | 9.0 | 0.00 | 0.00 | 0.00 | 83 | 999.8 |
| 20260830130314 | 82 | 49 | 4.0 | 5.0 | 0.00 | 0.00 | 0.00 | 83 | 999.8 |
| 20260830125923 | 82 | 47 | 1.0 | 5.0 | 0.00 | 0.00 | 0.00 | 83 | 999.7 |
| 20260830125422 | 83 | 19 | 0.0 | 0.0 | 0.00 | 0.00 | 0.00 | 84 | 999.7 |
| 20260830125254 | 83 | 264 | 0.0 | 1.0 | 0.00 | 0.00 | 0.00 | 84 | 999.7 |
| 20260830124922 | 83 | 222 | 0.0 | 4.0 | 0.00 | 0.00 | 0.00 | 84 | 999.7 |
| 20260830124743 | 83 | 211 | 3.0 | 4.0 | 0.00 | 0.00 | 0.00 | 84 | 999.7 |
| 20260830124422 | 83 | 212 | 1.0 | 3.0 | 0.00 | 0.00 | 0.00 | 83 | 999.7 |
| 20260830124234 | 83 | 214 | 2.0 | 3.0 | 0.00 | 0.00 | 0.00 | 83 | 999.6 |
| 20260830123922 | 83 | 181 | 1.0 | 3.0 | 0.00 | 0.00 | 0.00 | 83 | 999.6 |
| 20260830123723 | 83 | 181 | 2.0 | 3.0 | 0.00 | 0.00 | 0.00 | 83 | 999.6 |
| 20260830123422 | 83 | 190 | 1.0 | 2.0 | 0.00 | 0.00 | 0.00 | 83 | 999.6 |
| 20260830123214 | 83 | 196 | 1.0 | 2.0 | 0.00 | 0.00 | 0.00 | 83 | 999.6 |
| 20260830122922 | 83 | 188 | 1.0 | 2.0 | 0.00 | 0.00 | 0.00 | 83 | 999.6 |
| 20260830122703 | 83 | 198 | 1.0 | 2.0 | 0.00 | 0.00 | 0.00 | 83 | 999.6 |
| 20260830122422 | 83 | 203 | 1.0 | 2.0 | 0.00 | 0.00 | 0.00 | 84 | 999.6 |
| 20260830121922 | 83 | 205 | 1.0 | 2.0 | 0.00 | 0.00 | 0.00 | 84 | 999.6 |
| 20260830121643 | 83 | 174 | 1.0 | 2.0 | 0.00 | 0.00 | 0.00 | 84 | 999.6 |
| 20260830121422 | 83 | 213 | 1.0 | 2.0 | 0.00 | 0.00 | 0.00 | 84 | 999.6 |
| 20260830121133 | 82 | 191 | 1.0 | 2.0 | 0.00 | 0.00 | 0.00 | 84 | 999.5 |
| 20260830120922 | 82 | 176 | 1.0 | 2.0 | 0.00 | 0.00 | 0.00 | 84 | 999.5 |
| 20260830120623 | 82 | 190 | 2.0 | 4.0 | 0.00 | 0.00 | 0.00 | 84 | 999.5 |
| 20260830120422 | 82 | 172 | 1.0 | 4.0 | 0.00 | 0.00 | 0.00 | 84 | 999.5 |
| 20260830120113 | 82 | 220 | 2.0 | 3.0 | 0.00 | 0.00 | 0.00 | 84 | 999.5 |
| 20260830115922 | 82 | 167 | 2.0 | 4.0 | 0.00 | 0.00 | 0.00 | 83 | 999.5 |
| 20260830115603 | 82 | 177 | 2.0 | 4.0 | 0.00 | 0.00 | 0.00 | 83 | 999.5 |
| 20260830115422 | 82 | 213 | 3.0 | 4.0 | 0.00 | 0.00 | 0.00 | 83 | 999.4 |
| 20260830115053 | 83 | 195 | 3.0 | 4.0 | 0.00 | 0.00 | 0.00 | 83 | 999.4 |
| 20260830114922 | 83 | 211 | 3.0 | 4.0 | 0.00 | 0.00 | 0.00 | 83 | 999.3 |
| 20260830114543 | 83 | 219 | 2.0 | 4.0 | 0.00 | 0.00 | 0.00 | 82 | 999.4 |
| 20260830114422 | 83 | 190 | 1.0 | 4.0 | 0.00 | 0.00 | 0.00 | 82 | 999.4 |
| 20260830114033 | 83 | 198 | 2.0 | 6.0 | 0.00 | 0.00 | 0.00 | 82 | 999.3 |
| 20260830113922 | 83 | 201 | 2.0 | 6.0 | 0.00 | 0.00 | 0.00 | 82 | 999.2 |
| 20260830113523 | 84 | 113 | 0.0 | 2.0 | 0.00 | 0.00 | 0.00 | 81 | 999.2 |
| 20260830113422 | 84 | 49 | 0.0 | 4.0 | 0.00 | 0.00 | 0.00 | 81 | 999.1 |
| 20260830113013 | 83 | 15 | 2.0 | 4.0 | 0.00 | 0.00 | 0.00 | 81 | 999.0 |
| 20260830112921 | 83 | 24 | 1.0 | 2.0 | 0.00 | 0.00 | 0.00 | 81 | 999.0 |
| 20260830112503 | 83 | 196 | 1.0 | 4.0 | 0.00 | 0.00 | 0.00 | 81 | 999.0 |
| 20260830112422 | 83 | 201 | 1.0 | 4.0 | 0.00 | 0.00 | 0.00 | 81 | 998.9 |
| 20260830111952 | 84 | 183 | 4.0 | 5.0 | 0.00 | 0.00 | 0.00 | 80 | 998.9 |
| 20260830111921 | 84 | 204 | 4.0 | 5.0 | 0.00 | 0.00 | 0.00 | 80 | 998.9 |
| 20260830111443 | 84 | 264 | 1.0 | 3.0 | 0.00 | 0.00 | 0.00 | 81 | 998.9 |
| 20260830111422 | 84 | 226 | 1.0 | 3.0 | 0.00 | 0.00 | 0.00 | 81 | 998.8 |
| 20260830110932 | 84 | 192 | 1.0 | 2.0 | 0.00 | 0.00 | 0.00 | 81 | 998.9 |
| 20260830110921 | 84 | 300 | 1.0 | 2.0 | 0.00 | 0.00 | 0.00 | 81 | 998.9 |
| 20260830110424 | 83 | 234 | 0.0 | 1.0 | 0.00 | 0.00 | 0.00 | 81 | 998.9 |
| 20260830110422 | 83 | 228 | 0.0 | 1.0 | 0.00 | 0.00 | 0.00 | 81 | 998.9 |
| 20260830105921 | 83 | 218 | 1.0 | 3.0 | 0.00 | 0.00 | 0.00 | 81 | 998.9 |
| 20260830105912 | 83 | 204 | 1.0 | 3.0 | 0.00 | 0.00 | 0.00 | 81 | 998.8 |
| 20260830105421 | 83 | 205 | 1.0 | 5.0 | 0.00 | 0.00 | 0.00 | 81 | 998.8 |
| 20260830105403 | 83 | 171 | 1.0 | 5.0 | 0.00 | 0.00 | 0.00 | 80 | 998.8 |
| 20260830104921 | 84 | 240 | 1.0 | 4.0 | 0.00 | 0.00 | 0.00 | 80 | 998.7 |
| 20260830104852 | 84 | 230 | 1.0 | 4.0 | 0.00 | 0.00 | 0.00 | 80 | 998.7 |
| 20260830104421 | 84 | 228 | 1.0 | 4.0 | 0.00 | 0.00 | 0.00 | 79 | 998.7 |
| 20260830104343 | 84 | 174 | 2.0 | 4.0 | 0.00 | 0.00 | 0.00 | 79 | 998.7 |
| 20260830103921 | 84 | 227 | 2.0 | 3.0 | 0.00 | 0.00 | 0.00 | 80 | 998.7 |
| 20260830103832 | 84 | 232 | 2.0 | 3.0 | 0.00 | 0.00 | 0.00 | 80 | 998.7 |
| 20260830103421 | 84 | 293 | 0.0 | 1.0 | 0.00 | 0.00 | 0.00 | 80 | 998.7 |
| 20260830103323 | 84 | 241 | 0.0 | 1.0 | 0.00 | 0.00 | 0.00 | 80 | 998.7 |
| 20260830102921 | 83 | 272 | 0.0 | 3.0 | 0.00 | 0.00 | 0.00 | 80 | 998.7 |
| 20260830102812 | 83 | 6 | 0.0 | 3.0 | 0.00 | 0.00 | 0.00 | 80 | 998.7 |
| 20260830102421 | 83 | 197 | 2.0 | 4.0 | 0.00 | 0.00 | 0.00 | 80 | 998.7 |
| 20260830102306 | 83 | 176 | 2.0 | 4.0 | 0.00 | 0.00 | 0.00 | 81 | 998.7 |
| 20260830101921 | 83 | 216 | 1.0 | 2.0 | 0.00 | 0.00 | 0.00 | 81 | 998.7 |
| 20260830101752 | 83 | 160 | 1.0 | 4.0 | 0.00 | 0.00 | 0.00 | 81 | 998.7 |
| 20260830101421 | 83 | 175 | 2.0 | 5.0 | 0.00 | 0.00 | 0.00 | 80 | 998.7 |
| 20260830101243 | 83 | 203 | 2.0 | 5.0 | 0.00 | 0.00 | 0.00 | 80 | 998.7 |
| 20260830100921 | 83 | 134 | 2.0 | 6.0 | 0.00 | 0.00 | 0.00 | 80 | 998.7 |
| 20260830100732 | 84 | 153 | 2.0 | 6.0 | 0.00 | 0.00 | 0.00 | 80 | 998.7 |
| 20260830100421 | 84 | 206 | 4.0 | 5.0 | 0.00 | 0.00 | 0.00 | 79 | 998.6 |
| 20260830100223 | 84 | 161 | 3.0 | 5.0 | 0.00 | 0.00 | 0.00 | 79 | 998.5 |
| 20260830095921 | 84 | 198 | 2.0 | 4.0 | 0.00 | 0.00 | 0.00 | 78 | 998.5 |
| 20260830095712 | 84 | 184 | 2.0 | 5.0 | 0.00 | 0.00 | 0.00 | 78 | 998.5 |
| 20260830095421 | 84 | 166 | 1.0 | 5.0 | 0.00 | 0.00 | 0.00 | 78 | 998.5 |
| 20260830094921 | 84 | 168 | 1.0 | 4.0 | 0.00 | 0.00 | 0.00 | 78 | 998.3 |
| 20260830094652 | 84 | 162 | 2.0 | 4.0 | 0.00 | 0.00 | 0.00 | 78 | 998.3 |
| 20260830094421 | 84 | 167 | 2.0 | 3.0 | 0.00 | 0.00 | 0.00 | 78 | 998.4 |
| 20260830094143 | 84 | 216 | 2.0 | 3.0 | 0.00 | 0.00 | 0.00 | 78 | 998.3 |
| 20260830093920 | 84 | 282 | 0.0 | 1.0 | 0.00 | 0.00 | 0.00 | 78 | 998.3 |
| 20260830093632 | 84 | 262 | 1.0 | 2.0 | 0.00 | 0.00 | 0.00 | 78 | 998.3 |
| 20260830093421 | 84 | 211 | 0.0 | 2.0 | 0.00 | 0.00 | 0.00 | 78 | 998.3 |
| 20260830093123 | 84 | 214 | 1.0 | 2.0 | 0.00 | 0.00 | 0.00 | 78 | 998.4 |
| 20260830092920 | 84 | 224 | 1.0 | 4.0 | 0.00 | 0.00 | 0.00 | 78 | 998.3 |
| 20260830092612 | 84 | 202 | 2.0 | 4.0 | 0.00 | 0.00 | 0.00 | 78 | 998.2 |
| 20260830092421 | 84 | 196 | 3.0 | 6.0 | 0.00 | 0.00 | 0.00 | 78 | 998.2 |
| 20260830092102 | 85 | 202 | 2.0 | 6.0 | 0.00 | 0.00 | 0.00 | 78 | 998.3 |
| 20260830091920 | 84 | 202 | 2.0 | 5.0 | 0.00 | 0.00 | 0.00 | 78 | 998.2 |
| 20260830091552 | 85 | 180 | 3.0 | 4.0 | 0.00 | 0.00 | 0.00 | 78 | 998.1 |
| 20260830091421 | 85 | 184 | 1.0 | 3.0 | 0.00 | 0.00 | 0.00 | 78 | 998.1 |
| 20260830090921 | 84 | 234 | 1.0 | 5.0 | 0.00 | 0.00 | 0.00 | 78 | 998.0 |
| 20260830090532 | 85 | 242 | 4.0 | 5.0 | 0.00 | 0.00 | 0.00 | 78 | 998.1 |
| 20260830090421 | 85 | 231 | 3.0 | 4.0 | 0.00 | 0.00 | 0.00 | 78 | 998.0 |
| 20260830090022 | 85 | 226 | 2.0 | 5.0 | 0.00 | 0.00 | 0.00 | 78 | 998.1 |
| 20260830085921 | 85 | 159 | 3.0 | 5.0 | 0.00 | 0.00 | 0.00 | 78 | 998.0 |
| 20260830085512 | 85 | 169 | 3.0 | 5.0 | 0.00 | 0.00 | 0.00 | 77 | 998.0 |
| 20260830085420 | 85 | 180 | 3.0 | 5.0 | 0.00 | 0.00 | 0.00 | 77 | 998.0 |
| 20260830085002 | 85 | 195 | 3.0 | 7.0 | 0.00 | 0.00 | 0.00 | 77 | 998.0 |
| 20260830084920 | 85 | 215 | 3.0 | 7.0 | 0.00 | 0.00 | 0.00 | 76 | 998.0 |
| 20260830084451 | 86 | 287 | 2.0 | 4.0 | 0.00 | 0.00 | 0.00 | 76 | 998.0 |
| 20260830084420 | 86 | 195 | 2.0 | 4.0 | 0.00 | 0.00 | 0.00 | 76 | 998.0 |
| 20260830083942 | 86 | 17 | 2.0 | 6.0 | 0.00 | 0.00 | 0.00 | 76 | 998.1 |
| 20260830083921 | 86 | 77 | 3.0 | 6.0 | 0.00 | 0.00 | 0.00 | 76 | 998.1 |
| 20260830083431 | 86 | 324 | 1.0 | 5.0 | 0.00 | 0.00 | 0.00 | 76 | 998.1 |
| 20260830083420 | 86 | 325 | 1.0 | 5.0 | 0.00 | 0.00 | 0.00 | 76 | 998.1 |
| 20260830082923 | 86 | 353 | 2.0 | 3.0 | 0.00 | 0.00 | 0.00 | 76 | 998.1 |
| 20260830082921 | 86 | 360 | 2.0 | 3.0 | 0.00 | 0.00 | 0.00 | 76 | 998.1 |
| 20260830082420 | 86 | 242 | 0.0 | 3.0 | 0.00 | 0.00 | 0.00 | 77 | 998.1 |
| 20260830081920 | 86 | 283 | 0.0 | 4.0 | 0.00 | 0.00 | 0.00 | 78 | 998.1 |
| 20260830081902 | 86 | 256 | 0.0 | 6.0 | 0.00 | 0.00 | 0.00 | 78 | 998.1 |
| 20260830081420 | 86 | 23 | 3.0 | 6.0 | 0.00 | 0.00 | 0.00 | 78 | 998.2 |
| 20260830081351 | 86 | 47 | 3.0 | 6.0 | 0.00 | 0.00 | 0.00 | 77 | 998.2 |
| 20260830080920 | 86 | 344 | 1.0 | 5.0 | 0.00 | 0.00 | 0.00 | 78 | 998.2 |
| 20260830080842 | 86 | 293 | 1.0 | 5.0 | 0.00 | 0.00 | 0.00 | 78 | 998.2 |
| 20260830080419 | 85 | 52 | 1.0 | 5.0 | 0.00 | 0.00 | 0.00 | 78 | 998.4 |
| 20260830080331 | 85 | 49 | 2.0 | 5.0 | 0.00 | 0.00 | 0.00 | 78 | 998.3 |
| 20260830075920 | 85 | 324 | 2.0 | 8.0 | 0.00 | 0.00 | 0.00 | 78 | 998.4 |
| 20260830075822 | 85 | 343 | 2.0 | 10.0 | 0.00 | 0.00 | 0.00 | 78 | 998.5 |
| 20260830075420 | 85 | 357 | 5.0 | 10.0 | 0.00 | 0.00 | 0.00 | 78 | 998.5 |
| 20260830075311 | 85 | 22 | 3.0 | 8.0 | 0.00 | 0.00 | 0.00 | 77 | 998.5 |
| 20260830074921 | 86 | 33 | 4.0 | 7.0 | 0.00 | 0.00 | 0.00 | 77 | 998.4 |
| 20260830074801 | 86 | 288 | 2.0 | 10.0 | 0.00 | 0.00 | 0.00 | 77 | 998.4 |
| 20260830074419 | 86 | 354 | 6.0 | 10.0 | 0.00 | 0.00 | 0.00 | 76 | 998.5 |
| 20260830074251 | 86 | 326 | 3.0 | 6.0 | 0.00 | 0.00 | 0.00 | 77 | 998.5 |
| 20260830073920 | 86 | 241 | 2.0 | 3.0 | 0.00 | 0.00 | 0.00 | 77 | 998.5 |
| 20260830073741 | 86 | 261 | 1.0 | 4.0 | 0.00 | 0.00 | 0.00 | 76 | 998.5 |
| 20260830073420 | 86 | 207 | 1.0 | 5.0 | 0.00 | 0.00 | 0.00 | 76 | 998.5 |
| 20260830073231 | 87 | 359 | 2.0 | 5.0 | 0.00 | 0.00 | 0.00 | 77 | 998.5 |
| 20260830072920 | 86 | 2 | 1.0 | 6.0 | 0.00 | 0.00 | 0.00 | 77 | 998.5 |
| 20260830072721 | 86 | 346 | 0.0 | 6.0 | 0.00 | 0.00 | 0.00 | 77 | 998.5 |
| 20260830072420 | 86 | 21 | 1.0 | 4.0 | 0.00 | 0.00 | 0.00 | 77 | 998.5 |
| 20260830072211 | 86 | 265 | 2.0 | 5.0 | 0.00 | 0.00 | 0.00 | 77 | 998.6 |
| 20260830071921 | 86 | 31 | 1.0 | 9.0 | 0.00 | 0.00 | 0.00 | 77 | 998.6 |
| 20260830071701 | 86 | 63 | 5.0 | 9.0 | 0.00 | 0.00 | 0.00 | 77 | 998.5 |
| 20260830071420 | 86 | 52 | 1.0 | 10.0 | 0.00 | 0.00 | 0.00 | 77 | 998.6 |
| 20260830071150 | 86 | 31 | 4.0 | 10.0 | 0.00 | 0.00 | 0.00 | 76 | 998.6 |
| 20260830070920 | 87 | 32 | 2.0 | 8.0 | 0.00 | 0.00 | 0.00 | 76 | 998.7 |
| 20260830070641 | 87 | 42 | 1.0 | 5.0 | 0.00 | 0.00 | 0.00 | 77 | 998.7 |
| 20260830070420 | 87 | 353 | 1.0 | 6.0 | 0.00 | 0.00 | 0.00 | 76 | 998.7 |
| 20260830070130 | 86 | 246 | 3.0 | 6.0 | 0.00 | 0.00 | 0.00 | 76 | 998.6 |
| 20260830065920 | 87 | 221 | 3.0 | 6.0 | 0.00 | 0.00 | 0.00 | 76 | 998.6 |
| 20260830065621 | 87 | 121 | 1.0 | 9.0 | 0.00 | 0.00 | 0.00 | 77 | 998.5 |
| 20260830065420 | 87 | 282 | 2.0 | 9.0 | 0.00 | 0.00 | 0.00 | 76 | 998.6 |
| 20260830065110 | 87 | 323 | 3.0 | 6.0 | 0.00 | 0.00 | 0.00 | 77 | 998.6 |
| 20260830064920 | 87 | 162 | 0.0 | 7.0 | 0.00 | 0.00 | 0.00 | 77 | 998.6 |
| 20260830064420 | 87 | 212 | 1.0 | 7.0 | 0.00 | 0.00 | 0.00 | 77 | 998.7 |
| 20260830064050 | 87 | 340 | 1.0 | 8.0 | 0.00 | 0.00 | 0.00 | 77 | 998.7 |
| 20260830063920 | 87 | 272 | 3.0 | 8.0 | 0.00 | 0.00 | 0.00 | 77 | 998.8 |
| 20260830063541 | 87 | 246 | 3.0 | 7.0 | 0.00 | 0.00 | 0.00 | 77 | 998.7 |
| 20260830063420 | 87 | 6 | 2.0 | 7.0 | 0.00 | 0.00 | 0.00 | 77 | 998.7 |
| 20260830063030 | 86 | 249 | 3.0 | 9.0 | 0.00 | 0.00 | 0.00 | 77 | 998.7 |
| 20260830062920 | 86 | 267 | 5.0 | 9.0 | 0.00 | 0.00 | 0.00 | 77 | 998.7 |
| 20260830062521 | 86 | 287 | 3.0 | 10.0 | 0.00 | 0.00 | 0.00 | 77 | 998.8 |
| 20260830062420 | 86 | 69 | 5.0 | 10.0 | 0.00 | 0.00 | 0.00 | 76 | 998.9 |
| 20260830062010 | 86 | 125 | 2.0 | 11.0 | 0.00 | 0.00 | 0.00 | 78 | 998.9 |
| 20260830061920 | 86 | 135 | 1.0 | 11.0 | 0.00 | 0.00 | 0.00 | 78 | 998.9 |
| 20260830061501 | 86 | 314 | 1.0 | 4.0 | 0.00 | 0.00 | 0.00 | 78 | 998.9 |
| 20260830061420 | 86 | 307 | 2.0 | 7.0 | 0.00 | 0.00 | 0.00 | 78 | 998.9 |